Lid_Strength_Index
1 2 2 2 2 2 2 2 1 1 1 0 0 1 1 1 1 1 1 1 1 1
1 1 1 1 1 1 1 1 1 1 1 1 1 1 1 1 1 1 1 1 1 1
1 1 1 1 1 1 1 1 1 1 1 1 1 0 1 1 1 1 1 1 1 1
2 1 1 2 1 1 1 1 1 1 1 1 1 1 1 1 1 1 1 1 2 1
1 1 2 1 1 1 1 1 1 1 1 1 1 1 1 1 1 1 1 2 2 2
2 2 2 2 1 1 1 1 1 1 1 1 1 2 2 2 3 3 3 3 3 3
2 2 2 1 1 1 1 1 1 1 1 1 1 2 2 2 3 3 3 3 3 3
2 1 1 1 1 1 1 1 1 1 1 1 1 1 2 3 3 4 4 4 4 4
2 1 1 1 1 1 1 1 1 1 2 2 2 3 2 2 3 3 4 6 6 6
2 2 2 1 2 1 2 2 3 4 5 7 7 4 2 1 2 2 4 4 4 5
2 2 2 1 2 3 3 4 5 6 8 8 8 6 4 4 6 8 7 6 6 6
2 2 2 2 3 5 6 7 7 7 7 8 8 7 6 6 8 9 10 9 7 7
4 4 4 4 5 6 7 8 8 9 9 8 9 8 8 7 8 9 9 9 10 8
7 8 7 7 8 8 8 9 10 10 10 9 9 10 10 9 8 9 9 10 10 10